{"data":{"norad_id":53541,"epoch":"2026-09-20T14:17:11.768640Z","epoch_age_seconds":69974,"freshness":"FRESH","line1":"1 53541U 22101Q   26263.59527510 -.00000252  00000+0  22801-5 0  9994","line2":"2 53541  53.1605 278.4932 0001082  91.1994 268.9121 15.08832573226280","mean_motion":15.08832573,"eccentricity":0.0001082,"inclination_deg":53.1605,"raan_deg":278.4932,"arg_perigee_deg":91.1994,"mean_anomaly_deg":268.9121,"bstar":2.2801e-6,"rev_number":22628,"period_min":95.438024454685,"perigee_km":539.01757331062,"apogee_km":540.51460753939,"semimajor_km":6917.903090425,"source":"CELESTRAK","updated_at":"2026-09-21T09:00:32.901700Z"}}